STARLINK-3890 (52455 NORAD) Tracking and Keplerian Element Data

This shows tracking and keplerian element data for the satellite.

Feedback or suggestion? Click here.




ElementValue
Catalog52455
NameSTARLINK-3890
Epoch Orbit1051
Epoch Day193.25001157
Epoch Year2022
RAAN308.6147
Inclination53.2161
Eccentricity0.0001417
Argument of Perigee76.9945
Mean Anonmoly325.7832
Mean Motion15.08834254
Decay Rate0.0005202
L11 52455U 22049E 22193.25001157 .00052020 00000+0 32631-2 0 9991
L22 52455 53.2161 308.6147 0001417 76.9945 325.7832 15.08834254 10510

Live tracking and technical data element details for STARLINK-3890 (NORAD 52455). STARLINK-3890 can be tracked NOW for your location showing map with azimuth and elevation plus other details from your city location.

Track the satellite on the map from your city or location and see movement details for azimuth, elevation, latitude, longitude, range, height, and movement on the map or in text.







IsCatalogInMostPopularTable: catalog: 52455, numindb: 9
Update: records affected: 1



GetName: 52455 STARLINK-3890

Hit Count: updated at: Sun, 14 Aug 2022 01:09:34 GMT